This is the latest recevied weather packets stored in our database for station/object KI4HRG. If no packets are shown the sender has not sent any weather packets the latest 10 day(s).
| Time | Temp. | Humidity | Pressure | Rain* | Wind** | Luminosity | Snow |
|---|---|---|---|---|---|---|---|
| 1777994535 | 23.33° C | 62% | 1015.1 hPa | 0 mm | - | 787 W/m² | - |
| 1777994229 | 23.33° C | 62% | 1015.2 hPa | 0 mm | - | 806 W/m² | - |
| 1777993927 | 22.78° C | 62% | 1015 hPa | 0 mm | - | 769 W/m² | - |
| 1777993623 | 22.22° C | 64% | 1015.2 hPa | 0 mm | - | 806 W/m² | - |
| 1777993320 | 21.67° C | 66% | 1015.2 hPa | 0 mm | - | 775 W/m² | - |
| 1777993015 | 21.67° C | 65% | 1015.4 hPa | 0 mm | - | 723 W/m² | - |
| 1777992714 | 20.56° C | 68% | 1015.2 hPa | 0 mm | - | 703 W/m² | - |
| 1777992411 | 21.11° C | 68% | 1015.2 hPa | 0 mm | - | 706 W/m² | - |
| 1777992109 | 21.11° C | 67% | 1015.3 hPa | 0 mm | - | 689 W/m² | - |
| 1777991806 | 20.56° C | 69% | 1015.2 hPa | 0 mm | - | 629 W/m² | - |
| 1777991503 | 20.56° C | 70% | 1015.2 hPa | 0 mm | - | 622 W/m² | - |
| 1777991200 | 20.56° C | 69% | 1015.2 hPa | 0 mm | - | 623 W/m² | - |
| 1777990898 | 20.56° C | 69% | 1015.2 hPa | 0 mm | - | 611 W/m² | - |
| 1777990595 | 20.56° C | 70% | 1015.4 hPa | 0 mm | - | 581 W/m² | - |
| 1777989988 | 20° C | 69% | 1015.2 hPa | 0 mm | - | 534 W/m² | - |
| 1777989685 | 20° C | 70% | 1015.2 hPa | 0 mm | - | 536 W/m² | - |
| 1777989380 | 19.44° C | 71% | 1015.1 hPa | 0 mm | - | 505 W/m² | - |
| 1777989078 | 19.44° C | 71% | 1015.3 hPa | 0 mm | - | 494 W/m² | - |
| 1777988773 | 19.44° C | 71% | 1015.1 hPa | 0 mm | - | 454 W/m² | - |
| 1777988471 | 18.89° C | 72% | 1015 hPa | 0 mm | - | 347 W/m² | - |
| 1777988168 | 18.89° C | 73% | 1015 hPa | 0 mm | - | 399 W/m² | - |
| 1777987863 | 18.33° C | 74% | 1014.9 hPa | 0 mm | - | 249 W/m² | - |
| 1777987560 | 18.33° C | 75% | 1014.8 hPa | 0 mm | - | 273 W/m² | - |
| 1777987258 | 18.33° C | 74% | 1015.1 hPa | 0 mm | - | 365 W/m² | - |
| 1777986954 | 17.78° C | 75% | 1015 hPa | 0 mm | - | 328 W/m² | - |
* Rain latest hour (hover to see other rain measurements)
** Current wind speed in m/s (hover to see current wind gust speed)